Location: Milton
(43.5183°N, 79.8775°W)
Time: 15:29:53
(UTC+00:00)

ISS - Visible Passes

Search period start: 04 December 2022 00:00
Search period end: 14 December 2022 00:00
Orbit: 414 x 420 km, 51.6° (Epoch: 04 December)

Date Brightness Start Highest point End Pass type
(mag) Time Alt. Az. Time Alt. Az. Time Alt. Az.
04 Dec -0.3 00:41:54 10° W 00:42:10 11° W 00:42:10 11° W visible
04 Dec -3.1 22:16:39 10° NW 22:19:48 37° NNE 22:22:57 10° E visible
04 Dec -2.4 23:53:27 10° WNW 23:56:34 36° SW 23:56:37 36° SW visible
05 Dec -3.3 23:05:10 10° WNW 23:08:30 62° SW 23:11:20 13° SE visible
06 Dec -3.8 22:16:59 10° NW 22:20:20 80° NNE 22:23:40 10° ESE visible
06 Dec -0.7 23:54:52 10° W 23:56:40 14° SW 23:58:29 10° SSW visible
07 Dec -1.2 23:05:58 10° W 23:08:40 23° SW 23:11:22 10° S visible
08 Dec -2.1 22:17:27 10° WNW 22:20:36 38° SW 22:23:43 10° SSE visible
10 Dec -0.4 22:18:36 10° W 22:20:33 15° SW 22:22:30 10° SSW visible
